22:54
Airports
History
Links
Donate
Help keep this website running!
PayPal
Bitcoin
This page is community maintained. The information is intended for PC simulator navigation or reference.
Always use approved charts for navigation.
9Y8
Bergemann
Bergemann (9Y8)
Garden City, Minnesota, United States (56034)
4
Lat/Lng:44° 0' 14.86" N / 94° 10' 40.85" W
44.004129 / -94.178013
Elevation:1001'ft / 305mMSL
ID / ICAO:9Y8
Runways:1
Longest:36-18
Grass 756m / 2,482ft
Nearby Weather21:56 GMT 2018-02-22
Nearby weather at KMKT, Mankato Rgnl located 19.8 nautical miles from 9Y8
Altimeter: 30.36
Visibility: 10.0 statute miles
Wind: 13 knots (from 080°)
Temp: -3°c / 27°f
Humidity: 79.7%

METAR: KMKT 222156Z AUTO 08013KT 10SM -SN FEW030 OVC041 M03/M06 A3036 RMK AO2 UPB46E51SNB26E46B51 SLP301 P0000 T10281061 FZRANO

(Powered by phpweather)
Nearby VORs <50NM
Nearby NDBs
Runway 36 / 18
Dimensions:756.4 x 22.9m 2482' x 75'ft
Surface:Grass
Runway 36 [A]Runway 18 [B]
Heading:004°TH 184°TH
Lat:
Lng:
44° 0' 2.55"N
94° 10' 42.04"W
44° 0' 27.18"N
94° 10' 39.65"W
User Notes and Comments
44° 0' 14.86" N / 94° 10' 40.85" W
Distance To
Airport ID:
Nearby Airports
(R) Burk 12.3 NM
4MN7 SSW 205°
4 Budde 13.9 NM
5MN1 NNE 13°
4 Siegs Farm 17.5 NM
MY00 WSW 244°
4 Brinkman 18.6 NM
0MN1 NNE 16°
(U) St James Muni 18.9 NM
KJYG W 266°
(R) Hay Shakers 19.1 NM
MY46 N 354°
(U) Mankato Rgnl 19.8 NM
KMKT ( WX ) NE 40°
VFR Chart
Flight Planning at SkyVector.com